Home > Weather > Washington DC > Past weeks

Flag for U.S.A. Weather for the Past 2 Weeks in Washington DC, District of Columbia, U.S.A.

Now
24 °F

Passing clouds.


Feels Like: 9 °F
Forecast: 16 / 25 °F
Wind: 23 mph from Northwest

Location: Reagan National Airport

Current Time: Feb 13, 2016 at 5:13:16 AM

Latest Report: Feb 13, 2016 at 4:52 AM


Visibility: 10 mi

Pressure: 30.09 "Hg

Humidity: 44%

Dew point: 5 °F

Location of Washington DCLocation

Historic Weather in Washington DC — Graph

°F

Washington DC Temperature Yesterday

Maximum temperature yesterday: 31 °F (at 2:52 PM)
Minimum temperature yesterday: 20 °F (at 3:52 AM)
Average temperature yesterday: 25 °F

High & Low Weather Summary for the Past Weeks

 TemperatureHumidityPressure
High60 °F (Feb 1, 12:52 PM)100% (Feb 3, 4:52 PM)30.48 "Hg (Feb 3, 4:52 PM)
Low20 °F (Feb 12, 3:52 AM)28% (Feb 11, 3:52 PM)29.56 "Hg (Feb 9, 1:52 PM)
Average39 °F62%30.01 "Hg
* Reported Jan 29 3:52 AM — Feb 13 3:52 AM, Washington DC, Weather by CustomWeather, © 2016

Note: Actual official high and low records may vary slightly from our data, if they occured in-between our weather recording intervals... More about our weather records

Advertising

Washington DC Weather History for the Previous 24 Hours

 ConditionsComfort  
Time TempWeatherWind HumidityBarometerVisibility
3:52 AM
Sat, Feb 13
26 °FPassing clouds.21 mph52%30.04 "Hg10 mi
2:52 AM28 °FOvercast.13 mph49%30.02 "Hg10 mi
1:52 AM27 °FPassing clouds.8 mph55%30.01 "Hg10 mi
12:52 AM27 °FPassing clouds.8 mph66%30.01 "Hg10 mi
11:52 PM
Fri, Feb 12
28 °FOvercast.6 mph64%30.02 "Hg10 mi
10:52 PM28 °FLight snow. Overcast.10 mph64%30.03 "Hg9 mi
9:52 PM29 °FMostly cloudy.6 mph49%30.02 "Hg10 mi
8:52 PM28 °FOvercast.6 mph53%30.01 "Hg10 mi
7:52 PM28 °FPassing clouds.6 mph53%30.01 "Hg10 mi
6:52 PM28 °FPassing clouds.6 mph51%30.02 "Hg10 mi
5:52 PM29 °FPassing clouds.8 mph49%30.01 "Hg10 mi
4:52 PM29 °FMostly cloudy.5 mph45%30.03 "Hg10 mi
3:52 PM30 °FOvercast.6 mph43%30.05 "Hg10 mi
2:52 PM31 °FMostly cloudy.9 mph41%30.06 "Hg10 mi
1:52 PM30 °FMore clouds than sun.13 mph41%30.12 "Hg10 mi
12:52 PM28 °FCloudy.6 mph41%30.17 "Hg10 mi
11:52 AM28 °FMore clouds than sun.9 mph39%30.22 "Hg10 mi
10:52 AM25 °FOvercast.5 mph42%30.26 "Hg10 mi
9:52 AM24 °FOvercast.7 mph44%30.29 "Hg10 mi
8:52 AM23 °FPartly sunny.3 mph44%30.32 "Hg10 mi
7:52 AM21 °FBroken clouds.5 mph45%30.33 "Hg10 mi
6:52 AM20 °FPassing clouds.5 mph50%30.32 "Hg10 mi
5:52 AM20 °FPassing clouds.6 mph52%30.32 "Hg10 mi
Weather by CustomWeather, © 2016

See weather overviewHow to use our weather pages